Weather History for Provincetown, MA

Change the Weather History Date:

Saturday, January 26, 2013

  Actual Average Record
Temperature  
Mean Temperature 24 °F -  
Max Temperature 30 °F 33 °F 48 °F (2002)
Min Temperature 19 °F 23 °F 8 °F (2007)
Degree Days  
Heating Degree Days 40    
Moisture  
Dew Point 13 °F    
Average Humidity 65    
Maximum Humidity 86    
Minimum Humidity 40    
Precipitation  
Precipitation 0.00 in - - ()
Sea Level Pressure  
Sea Level Pressure 30.05 in    
Wind  
Wind Speed 25 mph (NNW)    
Max Wind Speed 31 mph    
Max Gust Speed 41 mph    
Visibility 9 miles    
Events      
Averages and records for this station are not official NWS values.
T = Trace of Precipitation, MM = Missing Value Source: NWS Daily Summary

Daily Weather History Graph

Daily Weather History Graph

Search for Another Location

Airport:

Trip Planner

Search our weather history database for the weather conditions in past years. The results will help you decide how hot, cold, wet, or windy it might be!

Date:

Astronomy

Jan. 26, 2013 Rise Set
Actual Time 6:59 AM EST 4:48 PM EST
Civil Twilight 6:29 AM EST 5:18 PM EST
Nautical Twilight 5:55 AM EST 5:52 PM EST
Astronomical Twilight 5:22 AM EST 6:25 PM EST
Moon 4:40 PM EST 6:14 AM EST
Length of Visible Light 10h 49m
Length of Day
9h 49m
Full, 100% of the Moon is Illuminated
Jan 26
Full
Jan 26
Full
Feb 3
Last Quarter
Feb 10
New
Feb 17
First Quarter

Hourly Weather History & Observations

Time (EST) Temp. Windchill Dew Point Humidity Pressure Visibility Wind Dir Wind Speed Gust Speed Precip Events Conditions
12:15 AM - - - N/A% - 5.0 mi North - - N/A   Overcast
12:35 AM - - - N/A% - 7.0 mi North - - N/A   Overcast
12:55 AM - - - N/A% - 2.5 mi North - - N/A   Overcast
1:15 AM - - - N/A% 30.03 in 7.0 mi North - - N/A   Overcast
1:35 AM 30.2 °F - 21.2 °F 69% 30.03 in 7.0 mi North - - N/A   Overcast
2:15 AM 23.0 °F - 17.6 °F 80% 30.01 in 5.0 mi North - - N/A   Overcast
2:35 AM 24.8 °F - 17.6 °F 74% 30.00 in 9.0 mi North - - N/A   Overcast
2:55 AM 23.0 °F - 19.4 °F 86% 29.99 in 10.0 mi North - - N/A   Overcast
3:15 AM 23.0 °F - 17.6 °F 80% 29.99 in 10.0 mi North - - N/A   Overcast
3:35 AM 23.0 °F - 15.8 °F 74% 29.99 in 10.0 mi North - - N/A   Overcast
3:55 AM 23.0 °F - 15.8 °F 74% 29.98 in 10.0 mi North - - N/A   Overcast
4:35 AM 23.0 °F - 17.6 °F 80% 29.98 in 10.0 mi North - - N/A   Overcast
4:55 AM 23.0 °F - 19.4 °F 86% 29.98 in 8.0 mi North - - N/A   Overcast
5:15 AM 23.0 °F - 17.6 °F 80% 29.98 in 10.0 mi North - - N/A   Overcast
5:35 AM 23.0 °F - 15.8 °F 74% 29.99 in 10.0 mi North - - N/A   Overcast
5:55 AM 23.0 °F - 14.0 °F 68% 29.99 in 10.0 mi North - - N/A   Overcast
6:15 AM 23.0 °F - 17.6 °F 80% 29.99 in 10.0 mi North - - N/A   Overcast
6:55 AM 23.0 °F - 15.8 °F 74% 29.99 in 10.0 mi North - - N/A   Overcast
7:15 AM 23.0 °F - 15.8 °F 74% 29.99 in 10.0 mi North - - N/A   Overcast
7:35 AM 23.0 °F - 17.6 °F 80% 29.99 in 10.0 mi North - - N/A   Overcast
8:35 AM 23.0 °F - 15.8 °F 74% 30.00 in 10.0 mi North - - N/A   Overcast
8:55 AM 23.0 °F - 17.6 °F 80% 30.01 in 10.0 mi North - - N/A   Overcast
9:15 AM 24.8 °F - 21.2 °F 86% 30.01 in 10.0 mi North - - N/A   Overcast
9:35 AM 23.0 °F - 17.6 °F 80% 30.02 in 5.0 mi North - - N/A   Overcast
9:55 AM 23.0 °F - 17.6 °F 80% 30.02 in 2.0 mi North - - N/A   Overcast
10:15 AM 23.0 °F - 17.6 °F 80% 30.02 in 2.0 mi North - - N/A   Overcast
10:35 AM 24.8 °F - 19.4 °F 80% 30.02 in 3.0 mi North - - N/A   Overcast
10:55 AM 24.8 °F - 15.8 °F 69% 30.01 in 5.0 mi North - - N/A   Overcast
11:15 AM 24.8 °F - 17.6 °F 74% 30.01 in 10.0 mi North - - N/A   Overcast
11:35 AM 24.8 °F - 17.6 °F 74% 30.01 in 10.0 mi North - - N/A   Overcast
12:15 PM 24.8 °F - 17.6 °F 74% 30.01 in 10.0 mi North - - N/A   Overcast
12:35 PM 23.0 °F - 17.6 °F 80% 30.01 in 10.0 mi North - - N/A   Overcast
12:55 PM 23.0 °F - 14.0 °F 68% 30.01 in 10.0 mi North - - N/A   Overcast
1:15 PM 24.8 °F - 14.0 °F 64% 30.01 in 10.0 mi North - - N/A   Overcast
1:35 PM 23.0 °F - 14.0 °F 68% 30.01 in 10.0 mi North - - N/A   Overcast
1:55 PM 24.8 °F - 12.2 °F 59% 30.01 in 10.0 mi North - - N/A   Mostly Cloudy
2:15 PM 24.8 °F - 10.4 °F 54% 30.02 in 10.0 mi North - - N/A   Mostly Cloudy
2:35 PM 24.8 °F - 10.4 °F 54% 30.02 in 10.0 mi North - - N/A   Mostly Cloudy
3:15 PM 24.8 °F - 8.6 °F 50% 30.03 in 10.0 mi North - - N/A   Scattered Clouds
3:35 PM 24.8 °F - 8.6 °F 50% 30.04 in 10.0 mi North - - N/A   Partly Cloudy
3:55 PM 24.8 °F - 8.6 °F 50% 30.04 in 10.0 mi North - - N/A   Scattered Clouds
4:15 PM 24.8 °F - 8.6 °F 50% 30.05 in 10.0 mi North - - N/A   Partly Cloudy
4:35 PM 24.8 °F - 5.0 °F 43% 30.06 in 10.0 mi North - - N/A   Clear
4:55 PM 24.8 °F - 3.2 °F 40% 30.07 in 10.0 mi North - - N/A   Clear
5:15 PM 23.0 °F - 3.2 °F 43% 30.08 in 10.0 mi North - - N/A   Clear
5:55 PM 23.0 °F 7.6 °F 5.0 °F 46% 30.09 in 10.0 mi NNW 21.9 mph 27.6 mph N/A   Clear
6:15 PM 23.0 °F 8.0 °F 5.0 °F 46% 30.09 in 10.0 mi NNW 20.7 mph 28.8 mph N/A   Clear
6:35 PM 23.0 °F 6.9 °F 5.0 °F 46% 30.10 in 10.0 mi NNW 24.2 mph 33.4 mph N/A   Partly Cloudy
6:55 PM 21.2 °F 5.6 °F 3.2 °F 46% 30.11 in 10.0 mi NNW 20.7 mph 34.5 mph N/A   Mostly Cloudy
7:15 PM 23.0 °F 6.6 °F 6.8 °F 50% 30.11 in 10.0 mi NNW 25.3 mph 33.4 mph N/A   Mostly Cloudy
7:35 PM 23.0 °F 6.3 °F 5.0 °F 46% 30.11 in 10.0 mi North 26.5 mph 33.4 mph N/A   Partly Cloudy
7:55 PM 21.2 °F 4.2 °F 5.0 °F 50% 30.12 in 10.0 mi NNW 25.3 mph 36.8 mph N/A   Partly Cloudy
8:35 PM 21.2 °F 4.2 °F 3.2 °F 46% 30.13 in 10.0 mi NNW 25.3 mph 34.5 mph N/A   Clear
8:55 PM 21.2 °F 3.5 °F 3.2 °F 46% 30.14 in 10.0 mi NNW 27.6 mph 39.1 mph N/A   Scattered Clouds
9:15 PM 21.2 °F 4.5 °F 5.0 °F 50% 30.14 in 10.0 mi NNW 24.2 mph 34.5 mph N/A   Partly Cloudy
9:35 PM 19.4 °F 1.1 °F 6.8 °F 58% 30.15 in 10.0 mi NNW 27.6 mph 36.8 mph N/A   Clear
9:55 PM 19.4 °F 0.8 °F 8.6 °F 63% 30.16 in 10.0 mi NNW 28.8 mph 36.8 mph N/A   Partly Cloudy
10:15 PM 21.2 °F 3.0 °F 8.6 °F 58% 30.16 in 10.0 mi NNW 29.9 mph 40.3 mph N/A   Partly Cloudy
10:35 PM 19.4 °F 0.2 °F 10.4 °F 68% 30.17 in 10.0 mi NNW 31.1 mph 41.4 mph N/A   Partly Cloudy
11:15 PM 19.4 °F 1.1 °F 12.2 °F 74% 30.18 in 10.0 mi NNW 27.6 mph 40.3 mph N/A   Partly Cloudy
11:35 PM 19.4 °F 0.2 °F 10.4 °F 68% 30.18 in 10.0 mi NNW 31.1 mph 40.3 mph N/A   Clear